Total_Precipitation_Accumulation
0.55 0.14 0.17 0.28 0.15 0.14 0.08 0.04 0.03 0.06 0.09 0.05 0.04 0.04 0.01 0.01 0.03 0.03 0.02 0.03 0.03 0.07 0.05 0.02 0.03 0.08 0.12 0.06 0.07 0.08 0.09 0.09 0.10 0.21 0.43 0.33 0.33 0.21 0.28 0.51 0.34 0.44 0.50
0.72 0.40 0.56 0.31 0.12 0.15 0.16 0.08 0.04 0.06 0.07 0.04 0.03 0.02 0.01 0.00 0.02 0.02 0.01 0.02 0.03 0.15 0.05 0.02 0.03 0.05 0.08 0.03 0.03 0.04 0.02 0.07 0.08 0.13 0.29 0.41 0.41 0.26 0.28 0.41 0.27 0.43 0.50
1.63 0.97 0.87 0.94 0.30 0.22 0.19 0.12 0.06 0.02 0.01 0.02 0.01 0.00 0.01 0.01 0.01 0.02 0.01 0.03 0.06 0.26 0.17 0.04 0.04 0.11 0.07 0.05 0.05 0.01 0.01 0.03 0.07 0.19 0.42 0.30 0.24 0.43 0.37 0.27 0.22 0.30 0.36
0.41 0.57 0.75 1.19 0.97 0.80 0.62 0.22 0.12 0.08 0.05 0.01 0.02 0.02 0.02 0.01 0.03 0.07 0.02 0.01 0.15 0.30 0.29 0.27 0.25 0.17 0.07 0.03 0.02 0.00 0.01 0.04 0.09 0.14 0.38 0.40 0.25 0.49 0.43 0.23 0.22 0.25 0.38
0.35 0.31 0.76 1.18 1.33 0.83 0.99 0.67 0.43 0.38 0.16 0.07 0.12 0.05 0.03 0.05 0.19 0.27 0.22 0.21 0.37 0.43 0.41 0.44 0.41 0.29 0.08 0.00 0.00 0.00 0.01 0.07 0.07 0.12 0.41 0.56 0.50 0.82 0.40 0.28 0.19 0.17 0.26
1.14 0.91 1.64 2.05 1.48 1.03 0.94 1.15 2.03 1.84 1.26 0.97 0.62 0.39 0.21 0.36 0.50 0.49 0.46 0.43 0.47 0.54 0.39 0.37 0.40 0.23 0.02 0.00 0.00 0.00 0.00 0.01 0.10 0.08 0.28 0.73 0.53 0.98 1.12 0.35 0.22 0.24 0.21
2.76 2.23 2.19 3.00 2.30 1.62 1.11 1.36 2.02 3.37 3.89 3.34 2.31 1.32 1.53 1.73 1.40 1.11 0.70 0.56 0.51 0.52 0.54 0.44 0.31 0.20 0.07 0.03 0.10 0.05 0.00 0.06 0.19 0.16 0.18 0.55 1.22 0.93 1.18 0.91 0.26 0.24 0.23
5.81 6.52 4.51 4.60 5.14 3.94 2.54 1.24 1.45 2.05 3.30 3.37 3.48 3.31 3.14 2.50 1.59 1.23 0.75 0.58 0.53 0.51 0.44 0.46 0.32 0.29 0.16 0.26 0.20 0.11 0.09 0.06 0.11 0.22 0.22 0.42 0.89 0.55 0.41 0.40 0.22 0.16 0.12
6.86 10.03 10.33 6.89 6.24 5.55 6.20 3.91 1.58 1.50 1.65 2.05 2.18 2.16 2.52 2.89 1.95 1.42 0.89 0.66 0.69 0.70 0.37 0.32 0.25 0.35 0.48 0.44 0.21 0.18 0.07 0.08 0.08 0.31 0.49 0.09 0.09 0.21 0.31 0.29 0.24 0.17 0.14
7.50 6.57 6.82 5.47 4.75 4.34 4.46 5.06 3.46 2.30 1.97 1.75 1.69 1.58 1.51 2.07 1.97 1.35 0.84 0.64 0.74 0.67 0.48 0.37 0.47 0.60 0.53 0.42 0.31 0.25 0.15 0.08 0.02 0.03 0.15 0.01 0.08 0.16 0.32 0.32 0.22 0.19 0.19
3.50 3.96 3.54 2.44 1.70 1.94 2.04 2.50 3.09 3.09 2.51 2.53 2.74 1.90 1.43 1.38 1.81 1.37 0.94 0.60 0.63 0.69 0.58 0.48 0.60 0.63 0.50 0.40 0.27 0.20 0.11 0.02 0.04 0.00 0.00 0.02 0.06 0.11 0.13 0.22 0.22 0.15 0.19
2.08 1.80 1.28 0.80 0.43 0.47 0.60 0.76 1.27 2.04 2.40 2.14 3.45 2.34 1.94 1.11 1.21 1.08 1.16 0.77 0.68 0.89 0.65 0.73 0.60 0.46 0.36 0.25 0.17 0.12 0.04 0.04 0.04 0.00 0.00 0.02 0.03 0.04 0.03 0.04 0.07 0.15 0.23
0.85 0.81 0.74 0.52 0.30 0.33 0.26 0.31 0.49 1.13 1.96 2.22 2.39 2.24 2.24 1.28 1.40 1.13 1.26 0.97 0.80 1.22 0.84 0.79 0.59 0.42 0.26 0.24 0.22 0.14 0.19 0.12 0.04 0.00 0.00 0.02 0.04 0.03 0.03 0.02 0.03 0.04 0.11
0.45 0.47 0.32 0.35 0.36 0.51 0.36 0.25 0.30 0.72 1.51 1.73 1.38 1.17 1.56 1.07 1.05 1.08 0.84 0.78 0.67 1.13 0.78 0.55 0.38 0.31 0.32 0.34 0.28 0.23 0.17 0.11 0.04 0.00 0.00 0.02 0.05 0.04 0.03 0.03 0.04 0.04 0.06
0.30 0.41 0.39 0.18 0.25 0.23 0.23 0.24 0.23 0.58 0.82 1.10 0.99 0.40 1.02 0.83 0.60 0.95 0.75 0.70 0.51 1.07 0.65 0.37 0.41 0.31 0.34 0.35 0.35 0.30 0.12 0.15 0.03 0.00 0.00 0.02 0.05 0.04 0.03 0.04 0.05 0.04 0.04
0.26 0.39 0.47 0.41 0.35 0.30 0.23 0.31 0.30 0.46 0.82 0.74 0.89 0.38 0.26 0.41 0.57 0.96 0.86 0.74 0.47 0.73 0.61 0.52 0.33 0.39 0.37 0.48 0.31 0.24 0.19 0.16 0.02 0.00 0.00 0.01 0.03 0.03 0.04 0.05 0.06 0.04 0.03
0.07 0.22 0.62 1.02 0.50 0.34 0.28 0.31 0.34 0.25 0.45 0.67 0.78 0.54 0.23 0.13 0.30 0.52 0.71 0.55 0.53 0.61 0.52 0.69 0.62 0.46 0.47 0.72 0.42 0.26 0.14 0.10 0.02 0.00 0.00 0.01 0.02 0.02 0.04 0.05 0.06 0.03 0.03
0.04 0.12 0.66 1.27 0.93 0.48 0.27 0.32 0.37 0.47 0.44 0.54 0.60 0.56 0.30 0.22 0.21 0.26 0.44 0.68 0.54 0.60 0.40 0.44 0.68 0.50 0.45 0.63 0.61 0.31 0.19 0.06 0.02 0.00 0.00 0.00 0.01 0.01 0.03 0.04 0.04 0.03 0.03
0.04 0.17 0.50 0.80 1.08 0.97 0.76 0.71 0.56 0.47 0.53 0.50 0.41 0.45 0.31 0.26 0.29 0.22 0.30 0.41 0.70 0.47 0.36 0.46 0.55 0.60 0.40 0.50 0.62 0.42 0.19 0.03 0.01 0.00 0.00 0.00 0.00 0.01 0.01 0.02 0.02 0.01 0.02
0.08 0.32 0.58 0.72 1.21 1.58 0.87 0.35 0.41 0.64 0.53 0.48 0.32 0.37 0.45 0.33 0.43 0.39 0.36 0.28 0.35 0.51 0.43 0.58 0.70 0.65 0.53 0.43 0.55 0.51 0.14 0.00 0.00 0.00 0.00 0.00 0.00 0.00 0.01 0.01 0.01 0.01 0.01
0.18 0.42 0.64 1.00 0.97 0.47 0.23 0.14 0.26 0.46 0.59 0.53 0.39 0.30 0.52 0.57 0.55 0.69 0.63 0.60 0.39 0.18 0.38 0.47 0.82 0.86 0.73 0.50 0.59 0.58 0.20 0.04 0.00 0.00 0.00 0.00 0.00 0.00 0.00 0.02 0.01 0.00 0.00
0.44 0.44 0.33 0.15 0.13 0.04 0.06 0.08 0.11 0.21 0.41 0.41 0.34 0.18 0.34 0.59 0.83 0.69 0.61 0.74 0.69 0.36 0.16 0.29 0.61 1.04 0.91 0.55 0.42 0.21 0.11 0.04 0.04 0.01 0.00 0.00 0.00 0.01 0.01 0.01 0.01 0.00 0.00
0.05 0.02 0.06 0.08 0.14 0.05 0.04 0.05 0.09 0.27 0.43 0.34 0.38 0.24 0.22 0.30 0.63 0.85 0.75 0.65 0.71 0.45 0.19 0.12 0.23 0.66 0.67 0.57 0.21 0.11 0.14 0.14 0.10 0.04 0.02 0.01 0.02 0.01 0.01 0.01 0.01 0.01 0.00
0.02 0.03 0.06 0.12 0.15 0.05 0.02 0.03 0.04 0.13 0.23 0.24 0.22 0.18 0.14 0.19 0.30 0.59 0.84 0.69 0.64 0.71 0.50 0.18 0.10 0.31 0.55 0.43 0.31 0.21 0.18 0.21 0.23 0.20 0.07 0.01 0.02 0.03 0.02 0.01 0.03 0.05 0.05
0.04 0.07 0.08 0.12 0.16 0.08 0.02 0.07 0.14 0.16 0.19 0.23 0.19 0.14 0.11 0.12 0.17 0.27 0.49 0.61 0.57 0.51 0.53 0.43 0.27 0.28 0.51 0.61 0.48 0.33 0.26 0.29 0.31 0.25 0.19 0.12 0.05 0.03 0.04 0.04 0.05 0.08 0.14
0.05 0.08 0.10 0.13 0.19 0.10 0.07 0.08 0.14 0.18 0.16 0.15 0.11 0.10 0.07 0.09 0.13 0.16 0.29 0.35 0.47 0.55 0.66 0.73 0.71 0.59 0.46 0.59 0.67 0.57 0.33 0.29 0.28 0.25 0.18 0.14 0.19 0.12 0.08 0.14 0.20 0.15 0.15